STARLINK-32020, 60201

Orbit data source: Space-Track

STARLINK-32020, 60201 is a payload satellite owned by SpaceX/Seattle (US) in LEO that was launched on Wed, 03 Jul 2024 UTC via an FALCON 9 launch vehicle from the Air Force Eastern Test Range (AFETR). Payload-class satellites include a variety of spacecraft equipped with specific instruments for various scientific and technological missions. These include communications satellites like Starlink; space stations such as the ISS; scientific satellites like the Hubble; Earth observation satellites from companies like Planet Labs, Umbra, and HawkEye 360; GPS; miniature CubeSats for education and research; and military/defense satellites.

Loading next visibility...
Identifier
60201, 2024-124U
Orbit
LEO
Last TLE update
22 hours ago
Origin
Manufacturer
SpaceX/Seattle
Mission
Operational Commercial Communications
Bus & Motor
STARLINK V2M, Unknown motor
Mass
730 kg wet, ~700 kg dry
Launch date (UTC)
2024-07-03 (1 year ago)
Launch vehicle
FALCON 9
Launch site
Air Force Eastern Test Range (AFETR)
Object type
Payload
Rocket body
Debris
Shape & HBR
Box + 2 Pan, 29 m
Radar Cross Section
36.964 m², Large (>1 m²)

Expand to show TLE details & history

TLE from 22 hours ago
0 STARLINK-32020
1 60201U 24124U   25185.84928001 -.00000538  00000-0 -60368-5 0  9991
2 60201  53.1608  33.4421 0001191  82.2951 277.8185 15.30195424 56351
Epoch: 2025-07-04T20:22Z
TLE epoch observation values (Epoch: 2025-07-04T20:22:57.792Z)
Latitude
-0.00004°
Longitude
164.6055°
Altitude
476.018 km
Speed
7.629 km/s
True Right ascension
02h 13m 46s
True Declination
0° 00' 00"
Sunlit
Object was in daylight at epoch
Visualization orbit readout
Latitude
49.40486°
Longitude
-139.31604°
Altitude
480.122 km
Speed
7.632 km/s
Apparent Right ascension
22h 14m 47s
Apparent Declination
52° 47' 09"
Sunlit
Object is in daylight
Visualization observer readout
Local Sidereal Time
06:33:50
Azimuth
329.158° NNW
Elevation
14.272°
Doppler factor
1
Orbital elements
Apogee altitude
476.301 km
Perigee altitude
474.669 km
Semi-major axis
6,853.622 km
Eccentricity
0.00012
Inclination
53.1608°
RAAN
33.4421°
Arg. of periapsis
82.2951°
True anomaly
Unknown
Mean anomaly
277.8185°
Eccentric anomaly
Unknown
Mean motion
3.82528 °/min
Orbital period
94.11 mins
BSTAR
-0.0000060368
Loading maneuver chart data...
Loading SW <> Apogee altitude chart data...
Loading historical data...
Loading historical data...
Loading historical data...
Loading historical data...
Loading historical data...
Loading historical data...
Loading historical data...

STARLINK-32020 Visibility forecast

Observer location: undefined°, undefined°

Span
Click to sort rows by Start time (UTC) header in descending order
Start Az.
Max El. time (UTC)
Max El. Az.
Max El.
End time (UTC)
End Az.
4 mins2025-07-05 21:55:16.750Z343.918° N2025-07-05 21:57:16.750Z25.114° NE19.989°2025-07-05 21:59:16.750Z66.207° ENE
5 mins2025-07-05 23:33:16.750Z300.587° NW2025-07-05 23:35:16.750Z245.503° WSW42.123°2025-07-05 23:38:16.750Z142.556° SSE
5 mins2025-07-06 16:29:16.750Z248.492° W2025-07-06 16:31:16.750Z356.602° N41.035°2025-07-06 16:34:16.750Z44.369° NE
|